www.pogodaiklimat.ru

Погода и климат >> Архив погоды >> Пакистан >> Dera Ismail Khan


ПОГОДА в Dera Ismail Khan

  • Прогноз погоды в Dera Ismail Khan
  • Монитор погоды в Dera Ismail Khan
  • Климат города

АРХИВ ПОГОДЫ в Dera Ismail Khan

Время (UTC), дата Ветер
(напр.,м/с)
 
Видим.   Явления Облачность Т
(С)
Тd
(С)
f
(%)
Тe
(С)
Тes
(С)
Комфортность P
(гПа)
Po
(гПа)
Тmin
(С)
Tmax
(С)
R
(мм)
R24
(мм)
S
(см)
09 19.09 штиль 0 10 км ясно +39.0 +21.8 37 +46 +64 опасность
перегрева
1001.7 983.2
12 19.09 штиль 0 10 км ясно +38.0 +22.3 41 +47 +49 опасность
перегрева
1002.1 983.5 +40.1
15 19.09 штиль 0 4000 м ясно +32.0 +21.8 55 +41 +41 опасность
перегрева
1001.9 1000.0
18 19.09 штиль 0 4000 м ясно +30.0 +24.3 72 +42 +42 опасность
перегрева
1003.2 1005.5
21 19.09 штиль 0 4000 м ясно +28.0 +23.7 77 +38 +38 очень
душно
1002.9 1000.0
00 20.09 штиль 0 4000 м ясно +26.5 +22.9 81 +35 +35 очень
душно
1003.0 983.7
03 20.09 штиль 0 10 км ясно +28.0 +23.7 77 +38 +42 очень
душно
1004.8 985.7 +25.0
06 20.09 штиль 0 10 км ясно +34.0 +22.5 51 +43 +62 опасность
перегрева
1005.0 986.1
09 20.09 штиль 0 10 км ясно +38.5 +23.8 43 +49 +66 опасность
перегрева
1003.4 982.2
12 20.09 штиль 0 10 км ясно +38.5 +21.4 37 +45 +48 опасность
перегрева
1002.2 983.6 +40.1
15 20.09 штиль 0 4000 м ясно +32.0 +21.8 55 +41 +41 опасность
перегрева
1002.6 1000.0
21 20.09 штиль 0 4000 м ясно +28.0 +23.7 77 +38 +38 очень
душно
1003.8 1004.0
00 21.09 С 1 4000 м ясно +27.0 +22.6 77 +36 +36 очень
душно
1005.2 986.0
03 21.09 В 1 10 км ясно +26.5 +22.1 77 +34 +38 очень
душно
1007.1 987.7 +25.1
06 21.09 штиль 0 10 км ясно +33.0 +23.0 56 +43 +62 опасность
перегрева
1008.2 989.3
09 21.09 штиль 0 10 км ясно +37.0 +22.8 44 +46 +63 опасность
перегрева
1006.5 987.8
12 21.09 ЮВ 1 10 км ясно +37.0 +22.8 44 +46 +48 опасность
перегрева
1004.2 985.5 +39.1
15 21.09 штиль 0 4000 м ясно +33.0 +23.0 56 +43 +43 опасность
перегрева
1005.1 984.3
18 21.09 штиль 0 4000 м ясно +30.0 +24.3 72 +42 +42 опасность
перегрева
1007.0 987.9
21 21.09 штиль 0 4000 м ясно +28.0 +23.7 77 +38 +38 очень
душно
1006.4 1000.0
00 22.09 штиль 0 4000 м ясно +28.0 +23.7 77 +38 +38 очень
душно
1006.4 1000.0
03 22.09 СЗ 1 10 км 8/5 300 м
[Sc As op]
+26.0 +19.9 69 +32 +33 очень
душно
1010.1 990.7 +22.1
06 22.09 штиль 0 10 км ясно +32.0 +18.2 44 +37 +55 опасность
солнечного
удара
1009.1 990.0
09 22.09 штиль 0 10 км ясно +35.0 +18.3 37 +39 +56 опасность
солнечного
удара
1007.8 1000.0
12 22.09 СЗ 1 10 км ясно +32.0 +18.6 45 +37 +39 очень
душно
1005.8 1003.5 +36.1
15 22.09 штиль 0 4000 м ясно +30.0 +22.0 62 +39 +39 очень
душно
1007.0 1000.0
18 22.09 штиль 0 4000 м ясно +28.0 +22.1 70 +36 +36 очень
душно
1008.5 989.2
21 22.09 штиль 0 4000 м ясно +26.0 +21.5 76 +33 +33 очень
душно
1008.3 1000.0
00 23.09 штиль 0 4000 м ясно +25.5 +21.8 80 +27 +27 жарко 1009.5 989.9
03 23.09 штиль 0 10 км 8/5 300 м
[Sc As op]
+25.0 +22.0 83 +32 +33 очень
душно
1010.8 991.2 +24.1
06 23.09 СВ 1 10 км ясно +30.0 +21.1 59 +38 +53 опасность
солнечного
удара
1009.6 990.4
09 23.09 ЮВ 1 10 км 4/4 300 м
[Sc]
+33.5 +21.0 48 +41 +50 опасность
перегрева
1007.4 1000.0
12 23.09 ЮВ 1 10 км ясно +34.0 +22.5 51 +43 +45 опасность
перегрева
1005.4 986.5 +34.5
15 23.09 штиль 0 4000 м ясно +30.0 +21.1 59 +38 +38 очень
душно
1006.4 1000.0
18 23.09 ЮВ 1 4000 м ясно +27.0 +21.8 73 +35 +35 очень
душно
1008.5 989.1
21 23.09 СВ 1 4000 м 4/4 1110 м
[Sc]
+25.5 +21.8 80 +33 +33 очень
душно
1009.4 986.8
00 24.09 СВ 1 4000 м ясно +24.5 +21.5 83 +31 +31 очень
душно
1007.9 988.3
03 24.09 СВ 1 4000 м дым ясно +25.0 +22.0 83 +32 +36 очень
душно
1008.6 989.0 +23.1
06 24.09 СВ 1 4000 м ясно +30.0 +22.0 62 +39 +56 опасность
солнечного
удара
1008.9 989.7
09 24.09 С 1 10 км 4/4 300 м
[Sc]
+33.0 +21.3 50 +41 +50 опасность
перегрева
1006.0 1000.0
12 24.09 Ю 1 10 км ясно +33.0 +21.3 50 +41 +42 опасность
перегрева
1004.3 985.3 +35.1
15 24.09 штиль 0 4000 м ясно +29.5 +21.4 62 +37 +37 очень
душно
1005.3 1000.0
18 24.09 ЮВ 1 4000 м 8/4 300 м
[Sc As op]
+28.0 +22.1 70 +36 +36 очень
душно
1006.2 987.0
21 24.09 СВ 1 4000 м 5/5 1110 м
[Sc]
+26.5 +21.3 73 +34 +34 очень
душно
1007.2 984.5
00 25.09 В 1 4000 м 4/4 300 м
[Sc]
+26.0 +21.5 76 +33 +33 очень
душно
1006.4 987.0
03 25.09 ЮВ 1 4000 м 8/4 1110 м
[Sc As op]
+25.5 +21.8 80 +33 +34 очень
душно
1008.7 989.1 +23.5
06 25.09 ЮВ 1 10 км ясно +31.5 +22.9 60 +41 +57 опасность
перегрева
1008.6 989.4
09 25.09 ЮЗ 1 10 км 4/4 300 м
[Sc]
+34.5 +23.1 52 +45 +54 опасность
перегрева
1006.8 1000.0
12 25.09 штиль 0 10 км ясно +34.0 +21.6 48 +42 +44 опасность
перегрева
1004.4 1003.9 +35.5
15 25.09 штиль 0 4000 м ясно +30.0 +22.8 65 +40 +40 очень
душно
1005.3 1000.0
18 25.09 штиль 0 4000 м ясно +28.0 +22.9 74 +37 +37 очень
душно
1006.2 987.0
21 25.09 штиль 0 4000 м ясно +26.5 +21.3 73 +34 +34 очень
душно
1006.8 1000.0
00 26.09 ЮЗ 2 4000 м ясно +26.0 +21.5 76 +33 +33 очень
душно
1005.8 986.4
03 26.09 ЮЗ 1 4000 м ясно +25.5 +21.8 80 +33 +36 очень
душно
1006.8 987.3 +24.5

 

Местоположение метеостанции Dera Ismail Khan (Пакистан): широта 31.82 долгота 70.92 высота над уровнем моря 173 м.

В архиве по умолчанию представлена погода в Dera Ismail Khan за последнюю неделю. Архивные данные за месяц целиком и за предыдущие месяцы, начиная с января 2011 года, Вы можете получить, выбрав интересующий диапазон дат из раскрывающегося списка и нажав кнопку "Ввод!".


*Определитесь, кто Вы:
робот инопланетянин человек

Внимание! Время в таблицах - всемирное. Для получения местного времени необходимо прибавить поправку, которая в Dera Ismail Khan равна 5 ч.

Смотрите также архив погоды в соседних городах и на ближайших метеорологических станциях:

Погода в Mianwali (Пакистан) (99 км)
Погода в Zhob (Пакистан) (147 км)
Погода в Sargodha (Пакистан) (167 км)
Погода в Raifiqui Airbase (Пакистан) (168 км)
Погода в Multan (Пакистан) (187 км)
Погода в Kohat (Пакистан) (200 км)
Погода в Faisal Abad (Пакистан) (211 км)
Погода в Parachinar (Пакистан) (241 км)
Погода в Barkhan (Пакистан) (244 км)
Погода в Peshawar (Пакистан) (252 км)

Пояснения к столбцам:

Ветер - указаны скорость ветра в м/с - средняя за 10 мин, порывы в срок и между сроками (в фигурных скобках) и направление, откуда дует ветер: С - северный, СВ - северо-восточный, В - восточный, ЮВ - юго-восточный, Ю - южный, ЮЗ - юго-западный, З - западный, СЗ - северо-западный.
Видимость - горизонтальная дальность видимости в метрах или километрах. При видимости от 1 до 10 км при отсутствии осадков обычно наблюдается дымка, при ухудшении видимости до 1 км и менее - туман. В сухую погоду видимость может ухудшаться дымом, пылью или мглою.
Явления - указаны атмосферные явления, наблюдавшиеся в срок или в последний час перед сроком; фигурными скобками обозначены явления, наблюдавшиеся между сроками (за 1-3 часа до срока); квадратными скобками обозначены град или гололедные отложения с указанием их диаметра в мм.
Облачность - указаны через наклонную черту общая и нижняя облачность в баллах и высота нижней границы облаков в метрах; квадратными скобками обозначены формы облаков: Ci - перистые, Cs - перисто-слоистые, Cc - перисто-кучевые, Ac - высококучевые, As - высокослоистые, Sc - слоисто-кучевые, Ns - слоисто-дождевые, Cu - кучевые, Cb - кучево-дождевые. Подробнее классификацию облаков см. в Атласе облаков (PDF).
T - Температура воздуха - температура, измеренная на высоте 2 м над землей.
Td - Температура точки росы - температура, при понижении до которой содержащийся в воздухе водяной пар достигнет насыщения.
f - Относительная влажность воздуха - влажноcть воздуха, измеренная на высоте 2 м над землей.
Te - Эффективная температура - температура, которую ощущает одетый по сезону человек в тени. Характеристика душности погоды. При расчете учитывается влияние влажности воздуха и скорости ветра на теплоощущения человека.
Tes - Эффективная температура на солнце - температура, которую ощущает человек, с поправкой на солнечный нагрев. Характеристика знойности погоды. Зависит от высоты солнца над горизонтом, облачности и скорости ветра. Ночью, в пасмурную погоду, а также при ветре 12 м/с и более поправка равна нулю.
P - Атмосферное давление - приведенное к уровню моря атмосферное давление.
Po - Атмосферное давление - измеренное на уровне метеостанции атмосферное давление.
Tmin - Минимальная температура - минимум температуры воздуха на высоте 2 м над землей.
Tmax - Максимальная температура - максимум температуры воздуха на высоте 2 м над землей.
R - Количество осадков - Количество выпавших осадков за период времени, мм. При наведении курсора мыши на число - период времени, за который выпало указанное количество осадков.
R24 - Количество осадков - Количество выпавших осадков за 24 часа, мм.
S - Снежный покров - Высота снежного покрова, см. При наведении курсора мыши на число - состояние снежного покрова и степень покрытия местности в баллах.